QPF
0.00 0.00 0.01 0.01 0.01 0.00 0.00 0.00 0.00 0.00 0.00 0.00 0.00 0.00 0.00 0.00 0.00 0.01 0.02 0.01 0.01 0.01 0.02 0.02 0.02 0.01 0.03 0.03 0.02 0.02 0.03 0.03 0.02 0.02 0.02 0.02 0.02 0.02 0.02 0.02 0.02 0.03 0.04 0.04 0.05 0.03 0.02 0.01 0.01
0.00 0.01 0.01 0.02 0.01 0.00 0.00 0.00 0.00 0.00 0.00 0.00 0.00 0.00 0.00 0.00 0.00 0.00 0.01 0.00 0.00 0.01 0.02 0.01 0.01 0.01 0.02 0.03 0.02 0.02 0.03 0.02 0.02 0.03 0.02 0.02 0.02 0.02 0.02 0.02 0.02 0.03 0.04 0.05 0.04 0.02 0.01 0.01 0.00
0.00 0.01 0.02 0.02 0.01 0.00 0.00 0.00 0.00 0.00 0.00 0.00 0.00 0.00 0.00 0.00 0.00 0.00 0.00 0.00 0.00 0.01 0.01 0.00 0.00 0.01 0.02 0.02 0.02 0.02 0.03 0.02 0.02 0.02 0.01 0.02 0.02 0.02 0.02 0.02 0.02 0.03 0.03 0.02 0.02 0.01 0.01 0.01 0.00
0.01 0.02 0.02 0.01 0.00 0.00 0.00 0.00 0.00 0.00 0.00 0.00 0.00 0.00 0.00 0.00 0.00 0.00 0.00 0.00 0.00 0.01 0.01 0.00 0.01 0.02 0.02 0.02 0.02 0.02 0.02 0.02 0.02 0.01 0.01 0.02 0.02 0.02 0.02 0.02 0.02 0.03 0.03 0.01 0.01 0.01 0.01 0.01 0.01
0.02 0.03 0.02 0.01 0.00 0.00 0.00 0.00 0.00 0.00 0.00 0.00 0.00 0.00 0.00 0.00 0.00 0.00 0.00 0.00 0.00 0.01 0.01 0.01 0.01 0.02 0.02 0.02 0.02 0.02 0.02 0.02 0.02 0.01 0.01 0.02 0.02 0.02 0.02 0.03 0.02 0.03 0.03 0.02 0.01 0.00 0.00 0.01 0.01
0.04 0.03 0.02 0.01 0.00 0.00 0.00 0.00 0.00 0.00 0.00 0.00 0.00 0.00 0.00 0.00 0.00 0.00 0.00 0.01 0.01 0.01 0.02 0.01 0.02 0.02 0.02 0.03 0.03 0.02 0.03 0.03 0.02 0.02 0.01 0.02 0.02 0.02 0.02 0.02 0.02 0.02 0.02 0.01 0.01 0.01 0.01 0.00 0.00
0.04 0.04 0.02 0.01 0.00 0.00 0.00 0.00 0.00 0.00 0.00 0.00 0.00 0.01 0.00 0.01 0.00 0.00 0.01 0.02 0.03 0.02 0.02 0.02 0.01 0.01 0.02 0.03 0.04 0.03 0.03 0.03 0.02 0.02 0.02 0.02 0.02 0.02 0.02 0.02 0.02 0.02 0.01 0.01 0.01 0.01 0.01 0.01 0.00
0.04 0.05 0.03 0.01 0.01 0.00 0.00 0.00 0.00 0.00 0.00 0.00 0.00 0.01 0.00 0.01 0.01 0.01 0.01 0.03 0.03 0.03 0.03 0.03 0.02 0.02 0.02 0.03 0.04 0.03 0.02 0.03 0.03 0.02 0.01 0.01 0.02 0.02 0.02 0.02 0.02 0.01 0.01 0.01 0.01 0.01 0.01 0.01 0.01
0.05 0.06 0.04 0.02 0.01 0.01 0.00 0.00 0.00 0.00 0.00 0.00 0.00 0.00 0.00 0.00 0.01 0.01 0.02 0.03 0.04 0.04 0.05 0.05 0.04 0.04 0.04 0.03 0.02 0.03 0.03 0.04 0.03 0.01 0.01 0.01 0.02 0.02 0.01 0.01 0.01 0.00 0.00 0.01 0.01 0.01 0.01 0.01 0.01
0.06 0.06 0.03 0.01 0.01 0.00 0.00 0.00 0.00 0.01 0.01 0.01 0.01 0.01 0.01 0.01 0.01 0.01 0.03 0.04 0.03 0.04 0.05 0.04 0.05 0.04 0.05 0.05 0.04 0.05 0.04 0.04 0.04 0.02 0.01 0.02 0.02 0.02 0.02 0.01 0.01 0.01 0.00 0.00 0.01 0.01 0.00 0.01 0.01
0.05 0.03 0.01 0.00 0.00 0.00 0.00 0.00 0.00 0.01 0.01 0.01 0.01 0.00 0.01 0.01 0.01 0.01 0.01 0.02 0.03 0.03 0.05 0.04 0.05 0.05 0.06 0.07 0.06 0.06 0.07 0.06 0.05 0.03 0.02 0.03 0.04 0.03 0.02 0.01 0.01 0.00 0.00 0.00 0.00 0.01 0.01 0.01 0.01
0.04 0.02 0.01 0.01 0.00 0.00 0.00 0.00 0.01 0.00 0.00 0.00 0.00 0.00 0.00 0.01 0.01 0.01 0.02 0.04 0.04 0.05 0.07 0.07 0.06 0.06 0.07 0.07 0.06 0.05 0.06 0.07 0.07 0.07 0.05 0.05 0.05 0.04 0.03 0.02 0.01 0.00 0.00 0.00 0.00 0.00 0.01 0.01 0.01
0.03 0.01 0.01 0.01 0.01 0.00 0.00 0.00 0.01 0.00 0.00 0.00 0.00 0.00 0.01 0.01 0.01 0.01 0.02 0.04 0.05 0.06 0.08 0.09 0.09 0.08 0.07 0.07 0.07 0.05 0.04 0.05 0.07 0.09 0.07 0.06 0.06 0.06 0.04 0.02 0.01 0.00 0.00 0.00 0.01 0.01 0.01 0.01 0.01
0.02 0.02 0.02 0.02 0.01 0.00 0.00 0.00 0.01 0.00 0.00 0.01 0.01 0.01 0.01 0.01 0.01 0.02 0.02 0.04 0.06 0.07 0.09 0.10 0.11 0.11 0.09 0.08 0.07 0.06 0.04 0.04 0.05 0.07 0.08 0.08 0.08 0.08 0.07 0.05 0.03 0.02 0.02 0.02 0.02 0.01 0.02 0.02 0.01
0.04 0.04 0.04 0.03 0.02 0.01 0.01 0.01 0.00 0.00 0.01 0.01 0.01 0.01 0.02 0.02 0.01 0.02 0.03 0.04 0.05 0.07 0.09 0.11 0.11 0.12 0.12 0.10 0.07 0.06 0.05 0.04 0.04 0.04 0.04 0.05 0.06 0.07 0.07 0.07 0.09 0.10 0.07 0.04 0.03 0.03 0.02 0.02 0.02
0.07 0.07 0.08 0.06 0.04 0.01 0.01 0.01 0.00 0.00 0.01 0.01 0.01 0.01 0.02 0.03 0.02 0.02 0.04 0.06 0.05 0.06 0.08 0.09 0.10 0.12 0.13 0.13 0.10 0.07 0.06 0.04 0.04 0.04 0.03 0.03 0.03 0.02 0.03 0.03 0.04 0.07 0.10 0.09 0.07 0.06 0.04 0.02 0.02
0.11 0.10 0.09 0.06 0.04 0.02 0.01 0.01 0.01 0.01 0.01 0.01 0.01 0.01 0.02 0.03 0.04 0.04 0.04 0.06 0.06 0.06 0.07 0.07 0.08 0.10 0.12 0.14 0.15 0.11 0.07 0.05 0.04 0.03 0.02 0.02 0.02 0.02 0.02 0.02 0.01 0.02 0.03 0.04 0.07 0.09 0.10 0.07 0.05
0.09 0.08 0.08 0.06 0.04 0.02 0.01 0.01 0.01 0.01 0.01 0.01 0.01 0.02 0.02 0.03 0.04 0.04 0.05 0.06 0.06 0.06 0.07 0.07 0.07 0.09 0.11 0.12 0.16 0.17 0.13 0.09 0.07 0.05 0.03 0.02 0.02 0.02 0.02 0.02 0.01 0.02 0.02 0.02 0.03 0.04 0.06 0.07 0.06
0.05 0.05 0.06 0.05 0.03 0.03 0.02 0.01 0.01 0.01 0.01 0.01 0.01 0.02 0.02 0.03 0.04 0.05 0.05 0.05 0.06 0.07 0.06 0.07 0.08 0.06 0.09 0.12 0.13 0.14 0.16 0.13 0.10 0.07 0.04 0.03 0.02 0.02 0.02 0.03 0.03 0.03 0.03 0.03 0.03 0.03 0.04 0.05 0.05
0.05 0.05 0.06 0.05 0.03 0.03 0.03 0.02 0.02 0.01 0.01 0.01 0.01 0.02 0.03 0.04 0.04 0.05 0.07 0.07 0.06 0.07 0.06 0.06 0.08 0.07 0.07 0.09 0.12 0.12 0.13 0.15 0.12 0.09 0.06 0.04 0.03 0.03 0.03 0.02 0.02 0.02 0.02 0.02 0.02 0.02 0.02 0.03 0.04
0.06 0.05 0.06 0.06 0.05 0.05 0.05 0.05 0.02 0.02 0.01 0.01 0.02 0.02 0.02 0.03 0.04 0.05 0.06 0.09 0.06 0.06 0.06 0.05 0.06 0.07 0.07 0.07 0.09 0.09 0.11 0.13 0.15 0.11 0.08 0.05 0.04 0.04 0.04 0.04 0.03 0.03 0.03 0.03 0.03 0.02 0.02 0.02 0.02
0.06 0.04 0.05 0.06 0.06 0.08 0.07 0.08 0.03 0.02 0.02 0.01 0.02 0.03 0.03 0.03 0.03 0.05 0.06 0.08 0.08 0.05 0.06 0.07 0.06 0.07 0.07 0.06 0.06 0.06 0.07 0.09 0.11 0.12 0.10 0.07 0.06 0.05 0.05 0.06 0.06 0.06 0.05 0.04 0.03 0.04 0.04 0.03 0.03
0.05 0.04 0.05 0.06 0.06 0.08 0.07 0.07 0.04 0.02 0.02 0.01 0.02 0.03 0.04 0.05 0.04 0.04 0.05 0.06 0.08 0.07 0.07 0.08 0.08 0.07 0.08 0.07 0.05 0.05 0.05 0.06 0.07 0.09 0.10 0.10 0.10 0.08 0.05 0.04 0.04 0.04 0.04 0.04 0.04 0.04 0.03 0.03 0.03
0.03 0.04 0.05 0.08 0.10 0.10 0.06 0.05 0.04 0.02 0.02 0.02 0.02 0.02 0.03 0.04 0.05 0.04 0.04 0.05 0.07 0.07 0.07 0.07 0.10 0.07 0.08 0.08 0.06 0.05 0.04 0.03 0.03 0.04 0.07 0.10 0.10 0.09 0.07 0.05 0.04 0.04 0.04 0.04 0.05 0.06 0.06 0.05 0.04
0.04 0.06 0.10 0.13 0.16 0.10 0.03 0.03 0.03 0.01 0.01 0.02 0.03 0.03 0.03 0.03 0.05 0.04 0.04 0.04 0.05 0.07 0.07 0.07 0.09 0.09 0.07 0.07 0.06 0.07 0.05 0.04 0.03 0.02 0.03 0.04 0.05 0.06 0.05 0.05 0.04 0.03 0.04 0.04 0.04 0.05 0.06 0.05 0.05
0.04 0.05 0.07 0.08 0.08 0.04 0.02 0.03 0.02 0.01 0.01 0.02 0.03 0.04 0.03 0.03 0.04 0.04 0.04 0.03 0.04 0.05 0.08 0.09 0.08 0.11 0.08 0.08 0.06 0.06 0.06 0.05 0.03 0.02 0.02 0.03 0.03 0.03 0.04 0.06 0.06 0.05 0.04 0.05 0.05 0.05 0.06 0.05 0.05
0.04 0.04 0.03 0.05 0.03 0.02 0.02 0.01 0.01 0.01 0.01 0.02 0.04 0.05 0.03 0.03 0.04 0.04 0.04 0.04 0.04 0.05 0.08 0.09 0.10 0.12 0.09 0.08 0.07 0.06 0.05 0.04 0.03 0.02 0.02 0.02 0.02 0.02 0.02 0.03 0.05 0.06 0.06 0.05 0.05 0.05 0.05 0.05 0.04
0.02 0.02 0.03 0.05 0.06 0.04 0.02 0.01 0.01 0.01 0.01 0.02 0.04 0.04 0.05 0.04 0.04 0.05 0.05 0.06 0.05 0.05 0.07 0.09 0.09 0.10 0.10 0.08 0.06 0.06 0.05 0.04 0.04 0.03 0.03 0.02 0.01 0.02 0.02 0.02 0.03 0.04 0.04 0.04 0.04 0.04 0.04 0.03 0.03
0.02 0.03 0.04 0.04 0.04 0.06 0.04 0.02 0.01 0.02 0.01 0.02 0.02 0.04 0.05 0.05 0.04 0.05 0.04 0.05 0.05 0.05 0.06 0.07 0.08 0.08 0.08 0.06 0.05 0.04 0.03 0.03 0.04 0.04 0.04 0.03 0.02 0.02 0.03 0.03 0.03 0.03 0.03 0.03 0.03 0.03 0.03 0.02 0.02
0.02 0.03 0.03 0.04 0.03 0.03 0.05 0.03 0.01 0.01 0.01 0.01 0.02 0.03 0.04 0.04 0.03 0.03 0.03 0.04 0.04 0.04 0.05 0.06 0.06 0.05 0.06 0.06 0.04 0.03 0.02 0.02 0.02 0.02 0.03 0.03 0.02 0.02 0.02 0.03 0.03 0.03 0.03 0.03 0.03 0.02 0.02 0.02 0.02
MSLP
1014.09 1013.97 1013.74 1013.35 1012.76 1011.97 1011.00 1009.93 1008.84 1007.82 1006.92 1006.16 1005.53 1004.98 1004.45 1003.90 1003.30 1002.68 1002.09 1001.63 1001.37 1001.39 1001.70 1002.29 1003.10 1004.03 1004.96 1005.82 1006.56 1007.17 1007.66 1008.09 1008.52 1008.99 1009.52 1010.09 1010.68 1011.25 1011.76 1012.18 1012.52 1012.79 1013.03 1013.26 1013.50 1013.75 1014.01 1014.23 1014.42
1014.24 1014.01 1013.63 1013.05 1012.24 1011.22 1010.05 1008.82 1007.60 1006.50 1005.56 1004.81 1004.21 1003.72 1003.26 1002.78 1002.27 1001.73 1001.23 1000.86 1000.68 1000.78 1001.17 1001.83 1002.70 1003.68 1004.66 1005.56 1006.34 1006.98 1007.51 1007.99 1008.46 1008.96 1009.52 1010.11 1010.71 1011.28 1011.78 1012.19 1012.52 1012.79 1013.03 1013.28 1013.53 1013.81 1014.09 1014.34 1014.56
1014.30 1013.95 1013.41 1012.65 1011.66 1010.48 1009.16 1007.81 1006.52 1005.38 1004.43 1003.68 1003.11 1002.65 1002.24 1001.82 1001.37 1000.91 1000.49 1000.20 1000.12 1000.30 1000.76 1001.48 1002.39 1003.40 1004.40 1005.32 1006.12 1006.78 1007.34 1007.84 1008.34 1008.87 1009.45 1010.06 1010.67 1011.24 1011.75 1012.16 1012.50 1012.79 1013.04 1013.30 1013.58 1013.87 1014.17 1014.44 1014.68
1014.28 1013.83 1013.17 1012.27 1011.16 1009.87 1008.48 1007.08 1005.77 1004.61 1003.67 1002.94 1002.37 1001.92 1001.52 1001.12 1000.70 1000.30 999.95 999.75 999.75 1000.01 1000.53 1001.30 1002.23 1003.24 1004.24 1005.15 1005.93 1006.59 1007.16 1007.67 1008.19 1008.74 1009.34 1009.96 1010.59 1011.18 1011.71 1012.15 1012.52 1012.83 1013.12 1013.40 1013.69 1013.99 1014.29 1014.56 1014.80
1014.24 1013.70 1012.96 1011.99 1010.83 1009.51 1008.12 1006.74 1005.45 1004.33 1003.40 1002.67 1002.08 1001.61 1001.18 1000.77 1000.36 999.98 999.68 999.54 999.61 999.93 1000.50 1001.29 1002.22 1003.21 1004.17 1005.05 1005.80 1006.44 1007.00 1007.52 1008.05 1008.61 1009.22 1009.86 1010.51 1011.13 1011.69 1012.18 1012.59 1012.95 1013.28 1013.59 1013.89 1014.19 1014.47 1014.73 1014.95
1014.20 1013.61 1012.83 1011.86 1010.71 1009.45 1008.13 1006.83 1005.62 1004.55 1003.65 1002.90 1002.29 1001.75 1001.26 1000.79 1000.35 999.96 999.69 999.59 999.70 1000.05 1000.64 1001.42 1002.33 1003.27 1004.18 1005.01 1005.72 1006.34 1006.88 1007.40 1007.93 1008.51 1009.13 1009.79 1010.46 1011.11 1011.72 1012.26 1012.73 1013.15 1013.52 1013.86 1014.17 1014.46 1014.71 1014.94 1015.13
1014.16 1013.56 1012.79 1011.87 1010.81 1009.66 1008.47 1007.30 1006.20 1005.22 1004.35 1003.59 1002.92 1002.30 1001.72 1001.16 1000.65 1000.23 999.94 999.83 999.95 1000.31 1000.88 1001.63 1002.48 1003.37 1004.22 1004.99 1005.67 1006.26 1006.80 1007.32 1007.87 1008.45 1009.09 1009.76 1010.45 1011.13 1011.77 1012.36 1012.90 1013.38 1013.80 1014.17 1014.49 1014.76 1014.99 1015.16 1015.31
1014.13 1013.54 1012.82 1011.98 1011.05 1010.05 1009.03 1008.03 1007.07 1006.17 1005.35 1004.58 1003.85 1003.14 1002.45 1001.79 1001.19 1000.70 1000.36 1000.22 1000.30 1000.62 1001.14 1001.82 1002.60 1003.41 1004.19 1004.92 1005.58 1006.17 1006.72 1007.27 1007.84 1008.44 1009.09 1009.77 1010.47 1011.16 1011.83 1012.46 1013.04 1013.57 1014.04 1014.45 1014.78 1015.05 1015.24 1015.38 1015.48
1014.08 1013.51 1012.85 1012.12 1011.33 1010.50 1009.66 1008.82 1008.01 1007.22 1006.44 1005.67 1004.89 1004.10 1003.32 1002.56 1001.86 1001.28 1000.87 1000.66 1000.67 1000.91 1001.34 1001.92 1002.61 1003.33 1004.06 1004.74 1005.39 1006.00 1006.59 1007.19 1007.80 1008.43 1009.10 1009.78 1010.47 1011.16 1011.84 1012.49 1013.10 1013.67 1014.19 1014.63 1014.99 1015.27 1015.45 1015.56 1015.63
1013.99 1013.45 1012.85 1012.22 1011.55 1010.88 1010.20 1009.51 1008.83 1008.14 1007.42 1006.67 1005.87 1005.03 1004.18 1003.34 1002.56 1001.91 1001.41 1001.11 1001.02 1001.14 1001.45 1001.91 1002.48 1003.11 1003.76 1004.42 1005.07 1005.72 1006.37 1007.02 1007.69 1008.37 1009.06 1009.75 1010.43 1011.10 1011.76 1012.41 1013.04 1013.64 1014.19 1014.68 1015.08 1015.39 1015.59 1015.70 1015.76
1013.89 1013.36 1012.81 1012.24 1011.66 1011.08 1010.52 1009.95 1009.37 1008.77 1008.11 1007.39 1006.61 1005.77 1004.90 1004.03 1003.21 1002.49 1001.92 1001.52 1001.32 1001.31 1001.48 1001.79 1002.23 1002.74 1003.32 1003.94 1004.60 1005.28 1006.00 1006.73 1007.47 1008.20 1008.92 1009.62 1010.29 1010.94 1011.59 1012.22 1012.85 1013.47 1014.06 1014.59 1015.05 1015.40 1015.65 1015.80 1015.89
1013.80 1013.27 1012.72 1012.16 1011.61 1011.07 1010.55 1010.04 1009.52 1008.98 1008.39 1007.73 1007.01 1006.21 1005.38 1004.53 1003.72 1002.99 1002.37 1001.90 1001.59 1001.45 1001.46 1001.61 1001.89 1002.28 1002.77 1003.34 1003.99 1004.71 1005.48 1006.28 1007.09 1007.89 1008.65 1009.37 1010.04 1010.68 1011.31 1011.93 1012.55 1013.19 1013.81 1014.39 1014.91 1015.34 1015.67 1015.89 1016.02
1013.76 1013.21 1012.63 1012.03 1011.43 1010.85 1010.30 1009.78 1009.27 1008.76 1008.22 1007.64 1007.00 1006.30 1005.57 1004.81 1004.07 1003.37 1002.75 1002.23 1001.84 1001.57 1001.44 1001.43 1001.56 1001.81 1002.19 1002.69 1003.30 1004.03 1004.83 1005.69 1006.57 1007.42 1008.24 1008.99 1009.69 1010.33 1010.95 1011.57 1012.20 1012.84 1013.49 1014.13 1014.72 1015.24 1015.65 1015.97 1016.19
1013.81 1013.22 1012.57 1011.87 1011.17 1010.48 1009.83 1009.22 1008.66 1008.14 1007.64 1007.14 1006.61 1006.05 1005.46 1004.85 1004.22 1003.61 1003.04 1002.52 1002.07 1001.72 1001.46 1001.31 1001.28 1001.39 1001.65 1002.06 1002.61 1003.31 1004.11 1005.00 1005.92 1006.83 1007.70 1008.50 1009.24 1009.92 1010.56 1011.19 1011.84 1012.50 1013.18 1013.87 1014.52 1015.12 1015.64 1016.06 1016.38
1013.97 1013.33 1012.58 1011.76 1010.90 1010.04 1009.23 1008.49 1007.84 1007.28 1006.79 1006.36 1005.95 1005.54 1005.13 1004.68 1004.21 1003.72 1003.23 1002.74 1002.28 1001.87 1001.52 1001.25 1001.10 1001.08 1001.21 1001.51 1001.98 1002.62 1003.39 1004.27 1005.21 1006.16 1007.08 1007.95 1008.75 1009.49 1010.19 1010.86 1011.53 1012.21 1012.92 1013.64 1014.35 1015.03 1015.64 1016.16 1016.59
1014.21 1013.51 1012.67 1011.70 1010.68 1009.64 1008.64 1007.74 1006.96 1006.33 1005.83 1005.45 1005.15 1004.89 1004.64 1004.37 1004.06 1003.71 1003.30 1002.87 1002.42 1001.99 1001.58 1001.24 1000.99 1000.87 1000.89 1001.09 1001.47 1002.02 1002.73 1003.57 1004.51 1005.48 1006.45 1007.39 1008.27 1009.10 1009.86 1010.59 1011.31 1012.02 1012.75 1013.49 1014.24 1014.96 1015.64 1016.24 1016.77
1014.48 1013.74 1012.81 1011.73 1010.55 1009.33 1008.15 1007.09 1006.18 1005.46 1004.93 1004.58 1004.36 1004.21 1004.11 1003.98 1003.81 1003.57 1003.25 1002.87 1002.45 1002.01 1001.59 1001.21 1000.91 1000.72 1000.67 1000.79 1001.08 1001.55 1002.19 1002.98 1003.88 1004.86 1005.88 1006.88 1007.85 1008.76 1009.62 1010.42 1011.19 1011.94 1012.68 1013.42 1014.17 1014.91 1015.63 1016.29 1016.89
1014.73 1013.97 1012.99 1011.82 1010.52 1009.17 1007.84 1006.64 1005.61 1004.81 1004.24 1003.89 1003.71 1003.65 1003.63 1003.60 1003.51 1003.34 1003.07 1002.73 1002.32 1001.89 1001.47 1001.09 1000.78 1000.58 1000.51 1000.58 1000.82 1001.22 1001.80 1002.53 1003.40 1004.37 1005.41 1006.47 1007.52 1008.53 1009.47 1010.36 1011.18 1011.95 1012.70 1013.43 1014.15 1014.88 1015.59 1016.28 1016.93
1014.91 1014.15 1013.16 1011.96 1010.60 1009.17 1007.76 1006.45 1005.33 1004.47 1003.86 1003.49 1003.32 1003.28 1003.29 1003.29 1003.22 1003.06 1002.79 1002.43 1002.02 1001.59 1001.17 1000.82 1000.54 1000.38 1000.33 1000.42 1000.65 1001.03 1001.56 1002.25 1003.09 1004.04 1005.09 1006.19 1007.30 1008.39 1009.42 1010.38 1011.25 1012.05 1012.78 1013.48 1014.17 1014.85 1015.53 1016.21 1016.87
1015.01 1014.28 1013.32 1012.14 1010.79 1009.35 1007.90 1006.55 1005.39 1004.47 1003.83 1003.43 1003.24 1003.18 1003.17 1003.13 1003.01 1002.78 1002.45 1002.02 1001.56 1001.10 1000.69 1000.37 1000.16 1000.07 1000.10 1000.25 1000.53 1000.94 1001.47 1002.14 1002.95 1003.89 1004.94 1006.06 1007.21 1008.36 1009.46 1010.47 1011.38 1012.19 1012.92 1013.58 1014.20 1014.82 1015.45 1016.09 1016.73
1015.06 1014.39 1013.49 1012.37 1011.08 1009.68 1008.26 1006.92 1005.75 1004.81 1004.14 1003.71 1003.48 1003.37 1003.28 1003.16 1002.94 1002.58 1002.12 1001.58 1001.02 1000.50 1000.07 999.77 999.63 999.64 999.78 1000.05 1000.43 1000.90 1001.48 1002.17 1002.98 1003.90 1004.94 1006.06 1007.23 1008.41 1009.55 1010.60 1011.54 1012.36 1013.07 1013.68 1014.25 1014.79 1015.35 1015.93 1016.54
1015.16 1014.53 1013.71 1012.69 1011.50 1010.17 1008.82 1007.51 1006.36 1005.42 1004.73 1004.28 1003.99 1003.81 1003.64 1003.40 1003.04 1002.53 1001.90 1001.20 1000.51 999.88 999.40 999.10 999.01 999.11 999.39 999.79 1000.30 1000.89 1001.55 1002.28 1003.10 1004.03 1005.05 1006.16 1007.33 1008.51 1009.66 1010.74 1011.69 1012.51 1013.20 1013.78 1014.29 1014.77 1015.25 1015.77 1016.33
1015.36 1014.79 1014.06 1013.14 1012.04 1010.80 1009.51 1008.26 1007.14 1006.21 1005.52 1005.03 1004.71 1004.46 1004.20 1003.85 1003.35 1002.67 1001.87 1000.99 1000.12 999.36 998.78 998.45 998.38 998.55 998.94 999.48 1000.13 1000.85 1001.61 1002.41 1003.27 1004.20 1005.21 1006.29 1007.44 1008.61 1009.75 1010.83 1011.79 1012.61 1013.29 1013.85 1014.32 1014.75 1015.18 1015.64 1016.14
1015.75 1015.23 1014.56 1013.72 1012.70 1011.55 1010.32 1009.11 1008.01 1007.09 1006.39 1005.89 1005.54 1005.25 1004.92 1004.48 1003.86 1003.04 1002.06 1001.00 999.95 999.03 998.33 997.91 997.81 998.02 998.47 999.12 999.90 1000.74 1001.61 1002.49 1003.40 1004.34 1005.34 1006.39 1007.51 1008.65 1009.77 1010.84 1011.80 1012.63 1013.32 1013.87 1014.33 1014.73 1015.12 1015.53 1015.99
1016.34 1015.85 1015.23 1014.45 1013.48 1012.37 1011.17 1009.98 1008.89 1007.97 1007.27 1006.76 1006.39 1006.08 1005.73 1005.24 1004.54 1003.61 1002.50 1001.27 1000.05 998.96 998.10 997.55 997.38 997.55 998.03 998.73 999.59 1000.53 1001.50 1002.46 1003.42 1004.39 1005.38 1006.41 1007.49 1008.59 1009.70 1010.75 1011.71 1012.55 1013.26 1013.83 1014.30 1014.70 1015.07 1015.47 1015.90
1017.10 1016.63 1016.03 1015.27 1014.32 1013.22 1012.02 1010.83 1009.72 1008.79 1008.08 1007.57 1007.21 1006.91 1006.56 1006.06 1005.33 1004.34 1003.13 1001.78 1000.40 999.14 998.10 997.40 997.09 997.18 997.61 998.32 999.22 1000.22 1001.26 1002.29 1003.30 1004.29 1005.29 1006.31 1007.36 1008.43 1009.50 1010.54 1011.51 1012.37 1013.10 1013.71 1014.21 1014.64 1015.03 1015.42 1015.84
1017.94 1017.48 1016.89 1016.12 1015.16 1014.03 1012.82 1011.59 1010.46 1009.51 1008.79 1008.28 1007.94 1007.66 1007.34 1006.87 1006.15 1005.14 1003.88 1002.44 1000.93 999.51 998.30 997.42 996.95 996.90 997.23 997.89 998.78 999.80 1000.88 1001.97 1003.02 1004.05 1005.06 1006.08 1007.11 1008.16 1009.21 1010.24 1011.21 1012.10 1012.87 1013.53 1014.08 1014.55 1014.98 1015.38 1015.81
1018.75 1018.29 1017.69 1016.90 1015.91 1014.76 1013.50 1012.25 1011.09 1010.12 1009.38 1008.88 1008.55 1008.31 1008.03 1007.60 1006.91 1005.91 1004.63 1003.13 1001.53 999.97 998.60 997.54 996.89 996.68 996.89 997.45 998.29 999.31 1000.41 1001.53 1002.63 1003.69 1004.73 1005.75 1006.78 1007.82 1008.86 1009.88 1010.86 1011.77 1012.59 1013.30 1013.91 1014.44 1014.91 1015.35 1015.79
1019.42 1018.96 1018.34 1017.52 1016.51 1015.32 1014.04 1012.77 1011.59 1010.61 1009.87 1009.37 1009.06 1008.84 1008.59 1008.19 1007.53 1006.55 1005.27 1003.74 1002.07 1000.40 998.90 997.68 996.87 996.50 996.57 997.03 997.80 998.78 999.89 1001.04 1002.18 1003.28 1004.35 1005.40 1006.43 1007.47 1008.50 1009.52 1010.51 1011.45 1012.30 1013.06 1013.73 1014.32 1014.84 1015.32 1015.78
1019.90 1019.43 1018.78 1017.94 1016.91 1015.71 1014.43 1013.16 1011.99 1011.02 1010.29 1009.79 1009.47 1009.25 1009.00 1008.60 1007.95 1006.98 1005.69 1004.14 1002.43 1000.69 999.09 997.76 996.81 996.31 996.27 996.63 997.34 998.29 999.40 1000.57 1001.76 1002.91 1004.02 1005.09 1006.14 1007.18 1008.21 1009.23 1010.22 1011.17 1012.05 1012.86 1013.57 1014.21 1014.78 1015.30 1015.79
Thickness
5704 5709 5714 5709 5695 5690 5699 5724 5740 5745 5752 5763 5768 5766 5760 5754 5748 5737 5758 5771 5769 5764 5759 5756 5754 5752 5750 5749 5747 5745 5744 5742 5741 5740 5739 5737 5736 5735 5734 5732 5731 5730 5729 5727 5726 5724 5723 5722 5721
5697 5702 5701 5694 5683 5681 5702 5725 5733 5743 5753 5761 5763 5762 5757 5751 5758 5756 5761 5766 5766 5761 5757 5753 5751 5749 5747 5746 5744 5742 5740 5739 5738 5737 5735 5734 5733 5732 5730 5729 5728 5727 5725 5724 5723 5721 5720 5719 5718
5689 5693 5685 5682 5682 5689 5707 5727 5734 5744 5753 5754 5752 5755 5752 5747 5754 5755 5761 5764 5762 5758 5754 5750 5748 5746 5744 5742 5740 5739 5737 5736 5734 5733 5732 5731 5729 5728 5727 5726 5725 5723 5722 5721 5719 5718 5716 5715 5714
5678 5676 5675 5673 5680 5701 5715 5728 5735 5736 5741 5748 5746 5741 5745 5751 5753 5755 5760 5759 5756 5753 5750 5746 5744 5742 5740 5739 5737 5735 5734 5732 5731 5729 5728 5727 5726 5724 5723 5722 5721 5720 5718 5717 5715 5714 5713 5712 5711
5665 5662 5658 5664 5680 5701 5716 5727 5731 5728 5730 5736 5738 5731 5731 5744 5751 5753 5754 5754 5751 5748 5745 5742 5740 5738 5737 5735 5733 5731 5730 5728 5727 5726 5724 5723 5722 5721 5719 5718 5717 5716 5715 5713 5712 5710 5709 5708 5707
5647 5652 5650 5658 5676 5694 5709 5720 5723 5721 5724 5729 5730 5725 5722 5736 5741 5744 5748 5748 5747 5744 5740 5737 5735 5734 5733 5731 5729 5728 5726 5725 5723 5722 5720 5719 5718 5717 5715 5714 5713 5712 5711 5709 5708 5707 5705 5704 5703
5635 5639 5645 5659 5668 5681 5699 5712 5712 5711 5713 5721 5728 5717 5716 5725 5733 5739 5741 5742 5741 5738 5735 5732 5730 5729 5728 5727 5725 5723 5722 5720 5719 5717 5716 5715 5714 5712 5711 5710 5709 5708 5706 5705 5704 5703 5701 5700 5699
5630 5630 5637 5649 5658 5671 5691 5699 5704 5702 5705 5721 5722 5708 5706 5717 5727 5732 5733 5733 5733 5732 5730 5728 5726 5725 5724 5722 5720 5719 5717 5716 5714 5713 5711 5710 5709 5708 5706 5705 5704 5703 5702 5701 5700 5698 5697 5696 5695
5619 5614 5625 5641 5651 5664 5680 5682 5690 5697 5699 5705 5711 5711 5713 5716 5719 5720 5720 5721 5722 5723 5723 5723 5722 5721 5719 5718 5716 5714 5712 5711 5709 5708 5707 5706 5705 5703 5702 5701 5700 5698 5697 5696 5695 5694 5693 5692 5691
5604 5606 5623 5641 5651 5656 5665 5668 5674 5677 5679 5686 5693 5700 5705 5707 5708 5708 5709 5710 5712 5714 5716 5717 5717 5716 5715 5714 5711 5709 5708 5706 5705 5704 5703 5702 5701 5699 5697 5696 5695 5694 5692 5691 5690 5690 5689 5688 5687
5597 5604 5620 5631 5642 5647 5651 5656 5663 5662 5662 5673 5676 5681 5688 5693 5697 5699 5701 5704 5706 5708 5710 5711 5712 5711 5711 5709 5707 5705 5704 5702 5701 5700 5699 5698 5696 5694 5692 5691 5689 5688 5687 5686 5685 5685 5684 5683 5682
5591 5602 5612 5619 5628 5633 5638 5644 5647 5652 5658 5669 5672 5674 5679 5681 5686 5690 5693 5696 5699 5701 5703 5705 5705 5706 5705 5704 5703 5701 5699 5698 5696 5695 5694 5693 5691 5689 5688 5686 5685 5684 5683 5681 5681 5680 5679 5678 5677
5583 5593 5603 5609 5616 5621 5627 5630 5634 5641 5653 5660 5664 5666 5669 5673 5677 5682 5687 5690 5692 5693 5695 5696 5698 5699 5698 5698 5697 5695 5694 5693 5692 5690 5689 5688 5686 5685 5683 5681 5680 5679 5678 5677 5676 5675 5674 5673 5672
5579 5585 5591 5598 5604 5610 5612 5617 5622 5631 5643 5647 5652 5654 5659 5664 5669 5673 5677 5680 5683 5685 5687 5689 5690 5690 5691 5691 5690 5689 5688 5687 5686 5685 5684 5682 5681 5680 5678 5676 5674 5673 5672 5671 5670 5669 5668 5666 5665
5572 5573 5579 5589 5594 5599 5602 5601 5612 5625 5632 5634 5640 5645 5649 5655 5660 5664 5669 5673 5675 5677 5679 5680 5682 5683 5683 5683 5683 5682 5681 5681 5680 5679 5677 5676 5675 5674 5672 5670 5668 5667 5666 5665 5664 5663 5661 5660 5659
5561 5560 5562 5578 5586 5590 5587 5587 5607 5618 5620 5623 5630 5635 5640 5646 5652 5657 5661 5664 5667 5669 5670 5672 5674 5674 5675 5675 5675 5675 5674 5673 5672 5672 5671 5670 5668 5667 5665 5664 5662 5661 5659 5658 5657 5655 5653 5652 5651
5548 5548 5556 5567 5579 5581 5579 5582 5599 5610 5611 5614 5621 5626 5631 5636 5642 5648 5653 5656 5659 5661 5662 5663 5665 5666 5666 5666 5666 5666 5666 5664 5663 5663 5663 5662 5661 5659 5658 5656 5655 5653 5652 5650 5649 5647 5645 5643 5642
5539 5546 5554 5559 5570 5573 5572 5579 5592 5600 5604 5607 5613 5618 5623 5628 5632 5638 5643 5646 5649 5652 5654 5655 5657 5657 5657 5658 5657 5657 5656 5656 5655 5655 5654 5654 5653 5651 5650 5648 5647 5645 5643 5641 5640 5638 5637 5635 5634
5543 5545 5547 5556 5566 5566 5566 5573 5583 5590 5594 5598 5604 5609 5614 5620 5625 5629 5633 5637 5639 5642 5644 5647 5648 5649 5649 5649 5647 5647 5646 5645 5645 5645 5645 5644 5643 5642 5641 5639 5637 5636 5634 5632 5631 5630 5628 5626 5625
5536 5535 5540 5550 5562 5560 5559 5565 5576 5582 5587 5593 5597 5602 5606 5610 5614 5619 5622 5625 5629 5632 5634 5637 5639 5640 5641 5641 5640 5639 5637 5636 5636 5635 5635 5634 5633 5632 5631 5630 5628 5626 5624 5622 5622 5621 5618 5616 5616
5529 5531 5536 5542 5551 5555 5553 5554 5566 5576 5582 5587 5591 5595 5598 5601 5604 5608 5611 5614 5618 5621 5623 5626 5629 5631 5632 5632 5631 5629 5627 5626 5625 5625 5624 5624 5623 5622 5621 5619 5618 5616 5615 5613 5612 5611 5609 5606 5606
5523 5533 5538 5539 5537 5538 5546 5539 5557 5568 5573 5577 5580 5583 5586 5591 5595 5597 5601 5603 5606 5611 5614 5617 5619 5622 5623 5624 5623 5621 5619 5617 5617 5616 5615 5614 5612 5612 5611 5609 5607 5605 5604 5603 5602 5601 5600 5598 5596
5524 5533 5536 5536 5534 5532 5539 5537 5549 5561 5562 5567 5571 5574 5577 5581 5583 5586 5590 5593 5596 5600 5603 5607 5609 5612 5614 5614 5614 5612 5610 5608 5607 5606 5605 5603 5602 5602 5601 5599 5598 5596 5594 5593 5592 5591 5590 5589 5587
5527 5527 5529 5531 5525 5522 5536 5536 5543 5551 5559 5563 5564 5566 5568 5571 5574 5577 5580 5582 5585 5589 5592 5595 5598 5600 5602 5603 5604 5603 5601 5599 5597 5597 5595 5593 5591 5591 5590 5589 5588 5587 5585 5584 5583 5582 5581 5580 5578
5520 5513 5508 5509 5513 5522 5538 5535 5538 5548 5557 5558 5557 5558 5560 5563 5564 5567 5570 5572 5574 5578 5581 5584 5587 5589 5590 5593 5594 5594 5593 5591 5589 5588 5586 5584 5583 5581 5580 5579 5578 5577 5576 5575 5573 5572 5571 5570 5569
5510 5511 5503 5502 5510 5520 5528 5528 5537 5544 5551 5554 5554 5552 5552 5553 5555 5557 5559 5562 5564 5567 5570 5573 5577 5578 5580 5581 5583 5584 5584 5582 5580 5579 5578 5576 5575 5573 5571 5570 5568 5567 5566 5565 5564 5562 5562 5560 5559
5504 5503 5509 5506 5512 5511 5520 5530 5533 5539 5540 5542 5542 5542 5541 5544 5546 5547 5549 5552 5554 5558 5560 5564 5565 5567 5570 5571 5573 5573 5573 5572 5571 5570 5569 5567 5566 5565 5562 5561 5559 5557 5557 5555 5553 5552 5551 5550 5548
5501 5501 5497 5496 5499 5505 5517 5524 5521 5522 5528 5531 5531 5532 5533 5534 5535 5537 5540 5542 5544 5548 5550 5553 5555 5557 5558 5560 5561 5563 5562 5561 5561 5560 5558 5557 5556 5555 5553 5551 5549 5548 5546 5545 5543 5542 5540 5539 5538
5490 5491 5491 5493 5497 5499 5501 5510 5520 5521 5524 5524 5522 5523 5524 5525 5526 5527 5529 5531 5534 5536 5539 5542 5544 5546 5547 5548 5549 5550 5550 5550 5550 5549 5548 5547 5546 5545 5543 5542 5540 5538 5536 5535 5533 5532 5530 5529 5527
5485 5486 5485 5481 5486 5493 5491 5497 5512 5514 5517 5517 5514 5515 5515 5516 5516 5517 5518 5521 5523 5526 5529 5531 5533 5535 5536 5536 5537 5538 5539 5539 5539 5539 5538 5537 5536 5535 5533 5532 5530 5529 5527 5525 5523 5522 5521 5520 5518